Temp
78 78 76 76 78 75 74 73 73 72 74 72 72 70 70 70 69 68 67 68 67 69 66 67 69 73 69 70 69 68 66 64
79 79 77 76 74 77 76 74 72 72 74 72 72 71 70 69 69 68 68 66 64 64 64 64 66 66 66 65 64 64 64 65
77 78 78 77 73 76 75 74 73 73 72 73 72 71 71 71 69 69 68 66 65 63 63 63 64 64 64 63 62 62 62 63
75 74 74 74 77 74 76 73 74 73 72 73 72 72 72 71 69 69 68 67 64 63 63 63 63 63 63 62 62 61 62 62
76 77 75 78 80 79 71 73 73 72 71 73 72 72 72 70 69 69 68 66 65 65 65 65 63 63 63 62 62 62 61 62
80 77 75 77 77 74 70 76 72 72 72 74 73 72 71 70 70 68 68 67 67 66 67 65 64 63 62 61 61 61 63 60
74 78 81 79 76 76 71 69 71 71 72 73 73 71 71 70 69 69 68 68 68 68 64 64 64 63 62 62 61 60 59 59
81 80 78 75 71 69 69 68 70 70 70 66 66 65 68 67 68 68 69 68 69 65 65 64 63 62 62 61 61 60 60 58
78 78 76 72 69 68 67 66 64 67 65 65 64 66 65 66 68 68 68 68 67 67 64 63 63 62 62 61 60 59 59 60
76 75 72 70 71 68 66 66 64 69 70 70 66 69 64 65 66 67 68 69 68 66 64 63 62 61 61 60 59 57 58 58
72 72 70 71 69 68 66 65 66 67 65 65 64 65 65 61 63 64 65 67 67 66 64 63 62 61 60 59 58 57 56 55
69 72 70 67 71 66 66 64 65 65 67 66 68 65 65 61 67 62 63 66 66 65 64 62 61 60 59 59 59 58 56 55
68 71 69 68 65 63 64 65 65 66 66 67 66 64 62 62 64 62 63 62 64 65 65 63 60 59 59 59 59 58 57 56
67 62 61 61 64 65 65 65 65 66 67 66 67 64 62 62 62 61 60 60 62 65 63 61 60 59 60 60 59 58 58 56
60 57 60 63 64 64 65 65 63 63 64 64 65 63 64 63 62 62 60 60 59 59 60 59 59 60 60 60 59 58 58 57
59 60 61 62 63 63 64 63 62 63 63 61 61 63 63 63 62 61 60 59 59 60 60 60 60 61 61 60 60 59 58 58
60 61 61 61 61 61 62 63 62 62 61 62 61 62 62 61 60 60 59 59 60 60 60 60 61 61 61 60 60 59 59 58
60 61 61 60 61 61 63 64 62 62 62 63 62 61 61 60 60 60 59 59 60 60 60 60 61 61 62 60 60 59 59 58
60 60 61 61 61 62 62 63 62 62 63 62 61 60 60 60 59 59 59 59 60 61 61 61 61 62 62 60 60 60 60 59
60 61 61 62 61 62 62 62 63 62 61 61 60 60 60 59 59 59 60 60 60 61 62 62 65 63 61 60 61 61 60 60
MSLP
1003.16 1003.02 1003.32 1003.18 1002.94 1003.75 1003.96 1004.29 1004.61 1004.81 1005.18 1005.46 1005.76 1006.32 1006.72 1007.23 1007.67 1008.17 1008.72 1009.20 1009.44 1009.60 1009.77 1010.10 1010.30 1010.46 1010.79 1011.08 1011.33 1011.58 1011.84 1011.96
1002.52 1002.19 1002.19 1002.52 1002.49 1002.24 1002.65 1003.51 1003.94 1004.13 1004.68 1004.89 1005.19 1005.62 1006.05 1006.50 1006.76 1007.43 1008.17 1008.90 1009.37 1009.63 1009.78 1009.76 1010.02 1010.20 1010.41 1010.87 1011.19 1011.44 1011.64 1011.70
1001.71 1001.45 1001.41 1001.40 1002.08 1001.68 1002.16 1002.51 1002.86 1003.17 1003.79 1004.27 1004.67 1004.75 1005.05 1005.53 1006.14 1006.50 1007.13 1008.14 1008.82 1009.25 1009.56 1009.64 1009.70 1009.87 1010.18 1010.72 1011.00 1011.30 1011.41 1011.47
1001.29 1001.33 1001.23 1001.16 1000.67 1000.82 1001.02 1001.79 1001.77 1002.52 1002.85 1003.08 1003.44 1004.07 1004.29 1004.93 1005.66 1005.95 1006.43 1007.23 1008.45 1008.92 1009.23 1009.45 1009.47 1009.61 1009.86 1010.15 1010.51 1010.95 1011.09 1011.29
1000.80 1000.29 1000.18 999.96 999.75 999.72 1000.21 1000.37 1000.84 1001.64 1002.02 1002.14 1002.64 1003.01 1003.73 1004.26 1004.90 1005.39 1006.02 1006.59 1007.63 1008.30 1008.66 1008.88 1008.99 1009.19 1009.37 1009.88 1010.32 1010.59 1010.87 1011.01
999.71 999.68 999.54 999.19 999.13 999.24 999.13 999.38 999.86 1000.46 1000.80 1001.38 1001.99 1002.48 1003.00 1003.62 1004.30 1004.79 1005.57 1006.23 1006.55 1007.62 1007.96 1008.18 1008.33 1008.82 1009.33 1009.75 1010.14 1010.43 1010.65 1010.91
999.42 999.03 998.72 998.59 998.38 998.32 998.49 998.99 999.02 999.34 1000.19 1000.50 1001.42 1002.00 1002.58 1003.19 1003.84 1004.43 1004.96 1005.48 1005.98 1006.90 1007.69 1008.23 1008.40 1008.72 1009.18 1009.55 1010.03 1010.28 1010.59 1010.64
998.65 998.44 998.00 997.89 997.75 997.69 997.79 997.99 998.34 998.81 999.79 1000.54 1001.28 1001.78 1002.26 1002.97 1003.56 1004.10 1004.57 1005.11 1006.10 1007.04 1007.77 1008.00 1008.52 1008.75 1009.19 1009.57 1009.80 1009.98 1010.23 1010.32
998.21 997.80 997.47 997.41 997.21 997.21 997.11 997.43 998.07 998.71 999.57 1000.29 1001.04 1001.27 1002.04 1002.68 1003.12 1003.69 1004.14 1004.84 1005.34 1006.13 1006.94 1007.55 1008.26 1008.57 1008.82 1009.19 1009.48 1009.86 1010.08 1010.14
997.72 997.30 996.97 996.89 996.69 996.55 996.67 996.80 997.31 997.79 998.55 999.05 999.85 1000.73 1001.85 1002.48 1002.97 1003.42 1003.81 1004.40 1005.39 1005.91 1006.45 1007.25 1007.87 1008.40 1008.69 1008.96 1009.37 1009.79 1009.97 1009.98
997.41 997.01 996.68 996.33 996.49 996.32 996.36 996.42 996.65 997.27 998.40 999.40 1000.20 1000.95 1001.87 1002.66 1003.07 1003.41 1003.86 1004.31 1004.99 1005.50 1006.17 1006.94 1007.58 1008.06 1008.43 1008.84 1009.17 1009.43 1009.70 1009.83
997.01 996.56 996.28 995.80 995.47 995.72 995.80 996.47 996.74 997.31 997.86 998.71 999.67 1000.42 1001.56 1001.97 1002.45 1003.30 1003.95 1004.44 1004.96 1005.61 1006.19 1006.87 1007.40 1007.77 1008.31 1008.49 1008.68 1008.91 1009.31 1009.72
996.55 996.05 995.56 995.11 995.37 995.45 995.60 996.22 996.89 997.50 997.90 998.73 999.75 1000.60 1001.49 1002.04 1002.70 1003.39 1004.56 1004.94 1005.21 1005.76 1006.29 1006.82 1007.42 1007.67 1007.91 1008.22 1008.40 1008.68 1008.98 1009.36
995.84 995.72 995.64 995.68 995.64 995.88 996.36 996.62 997.33 997.90 998.37 999.06 999.71 1000.69 1001.74 1002.60 1003.41 1004.02 1004.65 1005.16 1005.60 1006.03 1006.54 1006.95 1007.07 1007.43 1007.68 1007.87 1008.03 1008.33 1008.66 1009.03
996.18 996.35 996.33 996.13 996.29 996.56 996.96 997.32 997.93 998.35 998.86 999.54 1000.06 1000.86 1001.63 1002.48 1003.39 1004.08 1004.83 1005.41 1005.92 1006.22 1006.41 1006.68 1006.91 1007.08 1007.35 1007.60 1007.81 1008.14 1008.38 1008.74
996.63 996.75 996.69 996.77 997.00 997.37 997.63 997.98 998.42 998.89 999.53 1000.19 1000.63 1001.30 1001.99 1002.62 1003.24 1004.05 1004.66 1005.13 1005.59 1005.82 1006.09 1006.29 1006.58 1006.86 1007.08 1007.30 1007.58 1007.72 1007.95 1008.15
996.79 996.85 997.18 997.41 997.60 998.06 998.05 998.52 999.18 999.69 1000.25 1000.72 1001.30 1001.73 1002.13 1002.81 1003.54 1004.01 1004.60 1005.04 1005.42 1005.67 1005.83 1006.16 1006.47 1006.73 1006.97 1007.20 1007.39 1007.49 1007.60 1007.64
996.95 997.23 997.66 997.97 998.19 998.56 998.71 999.12 999.79 1000.31 1000.75 1001.25 1001.80 1002.17 1002.57 1003.13 1003.69 1004.37 1004.75 1005.14 1005.37 1005.59 1005.92 1006.23 1006.51 1006.66 1006.73 1006.92 1007.14 1007.23 1007.37 1007.28
997.16 997.64 998.00 998.27 998.56 998.98 999.43 999.91 1000.35 1000.93 1001.35 1001.85 1002.26 1002.77 1003.21 1003.58 1004.06 1004.49 1004.88 1005.11 1005.35 1005.66 1005.93 1006.19 1006.42 1006.37 1006.46 1006.66 1006.85 1006.91 1006.94 1007.02
997.41 997.75 998.20 998.62 999.02 999.54 999.97 1000.31 1000.79 1001.31 1001.79 1002.21 1002.74 1003.17 1003.56 1003.96 1004.40 1004.67 1004.87 1005.19 1005.48 1005.71 1005.87 1006.13 1006.14 1006.16 1006.29 1006.45 1006.50 1006.51 1006.65 1006.70
Wind_Speed
9 7 9 14 19 9 15 15 13 14 13 8 7 6 6 6 9 7 6 5 5 5 3 3 4 10 3 5 5 3 4 4
10 9 9 9 10 16 16 15 14 15 10 9 10 9 8 8 10 11 8 5 5 5 3 5 4 4 5 4 3 4 5 5
9 10 9 9 7 13 14 15 16 15 14 9 10 11 11 11 10 12 10 8 7 5 4 4 4 4 4 4 4 4 5 5
8 8 10 9 11 10 14 15 17 14 16 16 12 10 11 10 9 10 13 8 6 6 5 5 5 4 4 5 5 4 4 4
12 10 10 12 11 12 12 17 16 16 18 15 12 11 10 10 9 12 13 10 8 8 7 7 4 5 6 4 4 3 4 3
12 10 11 13 13 11 10 11 16 17 17 14 10 10 10 9 9 9 13 12 13 9 8 6 4 4 4 4 4 3 3 3
11 14 17 16 14 14 9 10 14 18 14 11 11 9 9 8 8 8 12 13 12 9 4 3 5 4 4 4 3 3 3 4
17 17 15 12 11 10 8 9 12 13 8 5 4 4 6 6 8 8 12 9 9 5 6 6 5 4 4 3 5 3 4 4
15 16 14 11 10 9 10 10 9 9 6 7 5 9 7 7 7 10 10 9 11 11 5 5 5 6 5 4 2 3 2 1
17 15 11 10 11 9 7 9 10 10 8 6 3 8 4 5 5 8 10 9 10 9 7 6 6 4 4 3 4 2 2 3
15 13 12 11 10 11 9 10 12 10 9 7 5 7 7 4 5 5 5 7 8 8 7 5 5 4 4 4 4 6 3 2
11 14 13 11 14 6 9 7 8 8 12 8 12 6 8 3 6 4 4 5 6 6 6 6 6 4 5 4 4 3 3 3
12 14 10 9 6 5 6 9 8 9 8 10 7 8 5 5 6 8 8 4 6 6 6 6 5 4 4 5 4 4 3 3
8 6 3 3 5 7 7 11 10 10 10 9 11 13 10 9 7 6 6 4 4 5 6 6 5 5 5 4 4 5 4 3
4 1 4 6 8 8 8 10 9 8 9 9 10 11 11 13 10 8 7 4 3 5 5 5 4 4 4 4 4 5 4 4
5 5 6 7 9 8 10 10 11 9 9 8 8 9 7 8 8 7 5 4 5 6 5 5 5 5 4 4 3 4 5 5
6 7 7 7 8 7 11 12 10 10 9 9 8 8 9 8 7 5 4 4 4 6 5 5 4 3 4 4 4 4 5 4
7 7 7 6 8 8 11 12 12 10 10 9 8 7 7 7 6 6 6 5 5 5 4 2 2 4 5 5 3 4 5 4
9 8 7 8 8 10 10 12 12 9 9 8 9 7 7 6 6 6 6 5 6 4 4 3 4 5 4 4 5 5 5 4
10 10 10 10 10 10 10 10 11 8 7 8 7 7 6 6 6 6 6 6 3 4 3 2 5 5 3 4 4 4 5 4
Wind_Direction
249 224 209 207 212 197 203 205 203 195 201 187 189 189 189 191 190 182 178 181 192 196 176 202 205 224 210 232 232 230 229 230
251 234 208 210 194 208 208 202 199 203 196 199 192 189 192 194 193 179 176 181 186 191 194 194 195 193 198 201 205 226 234 235
262 261 286 279 197 219 210 196 202 200 198 193 196 199 197 198 192 184 178 182 190 179 203 190 200 182 188 198 207 221 230 233
265 248 243 244 246 216 209 206 206 194 200 196 199 198 200 194 192 191 184 168 179 185 197 203 203 183 194 198 196 207 228 226
239 258 255 252 250 242 192 201 195 197 202 201 194 200 195 193 191 187 181 170 172 187 203 207 188 192 195 177 199 202 224 226
283 263 251 259 254 237 207 200 192 198 196 201 200 193 191 191 189 180 178 180 185 193 201 195 182 180 164 171 183 211 221 219
270 270 269 263 249 250 227 196 193 193 202 187 193 189 191 187 177 174 179 189 195 183 177 178 187 156 166 177 187 182 213 244
277 270 264 256 253 240 231 190 199 185 176 143 133 148 171 163 170 173 176 185 173 147 186 178 166 155 186 178 200 201 216 234
265 266 268 265 255 237 205 168 175 156 155 160 159 190 166 167 166 167 165 167 165 173 172 148 169 187 192 182 165 240 297 215
270 267 264 260 247 243 203 201 166 181 180 186 140 159 146 140 146 159 172 165 163 165 154 168 183 163 178 177 168 180 227 184
266 265 256 249 238 234 206 198 181 170 140 115 96 97 110 106 144 147 152 146 150 149 156 167 164 163 185 194 191 187 205 201
252 263 263 235 240 220 215 189 154 142 147 133 152 147 155 148 153 107 120 137 143 142 154 150 163 163 192 199 189 184 150 206
254 254 264 283 229 198 144 129 122 133 123 130 132 108 102 109 112 111 141 136 132 147 142 146 174 175 190 185 174 186 181 169
271 323 17 67 89 97 109 115 112 119 126 130 131 125 123 117 118 119 127 123 136 130 148 172 157 172 185 194 194 199 196 196
266 167 107 92 83 90 100 113 104 105 108 109 121 124 130 131 142 141 141 135 137 162 160 156 170 187 193 187 198 203 194 197
158 130 94 87 89 89 104 104 97 93 95 97 97 110 122 130 137 142 143 148 151 162 161 176 192 186 201 196 216 216 204 212
135 106 99 103 97 96 107 100 92 93 99 100 98 109 115 128 125 120 128 124 146 158 165 171 182 210 216 212 220 230 221 220
123 115 108 95 96 98 101 104 103 103 102 107 111 109 109 115 119 136 143 143 149 155 153 155 205 223 228 211 225 244 217 226
131 123 109 111 105 110 110 108 109 105 109 113 113 113 119 124 134 142 149 143 153 163 174 196 229 243 245 232 224 239 222 219
135 128 126 123 115 115 121 119 118 122 118 113 112 118 124 130 137 148 147 158 158 168 202 217 262 240 221 232 233 234 232 228